Springfield, OH

12:29 PM EST on January 17, 2017 (GMT -0500)
Springfield-Beckley Municipal

Weather History for KSGH - December, 2013

Change the Weather History Date:

Sunday, December 1, 2013

  Actual Average (KFFO) Record (KFFO)
Temperature  
Mean Temperature 41 °F -  
Max Temperature 50 °F 45 °F 61 °F (2012)
Min Temperature 32 °F 29 °F 15 °F (1999)
Degree Days  
Heating Degree Days 24    
Moisture  
Dew Point 30 °F    
Average Humidity 71    
Maximum Humidity 92    
Minimum Humidity 54    
Precipitation  
Precipitation 0.00 in - - ()
Sea Level Pressure  
Sea Level Pressure 30.08 in    
Wind  
Wind Speed 7 mph (SW)    
Max Wind Speed 14 mph    
Max Gust Speed -    
Visibility 7 miles    
Events      
Averages and records for this station are not official NWS values.
T = Trace of Precipitation, MM = Missing Value Source: NWS Daily Summary

Daily Weather History Graph

Daily Weather History Graph

Search for Another Location

Airport or City:

Trip Planner

Search our weather history database for the weather conditions in past years. The results will help you decide how hot, cold, wet, or windy it might be!

Date:

Astronomy

Dec. 01, 2013 Rise Set
Actual Time 7:37 AM EST 5:11 PM EST
Civil Twilight 7:07 AM EST 5:41 PM EST
Nautical Twilight 6:34 AM EST 6:14 PM EST
Astronomical Twilight 6:01 AM EST 6:47 PM EST
Moon 5:54 AM EST (12/1) 4:20 PM EST (12/1)
Length of Visible Light 10h 33m
Length of Day
9h 33m
Waning Crescent, 2% of the Moon is Illuminated
Dec 1
Waning Crescent
Dec 2
New
Dec 9
First Quarter
Dec 17
Full
Dec 25
Last Quarter

Hourly Weather History & Observations

Time (EST) Temp. Windchill Dew Point Humidity Pressure Visibility Wind Dir Wind Speed Gust Speed Precip Events Conditions
12:56 AM 36.9 °F 31.4 °F 28.0 °F 70% 30.18 in 8.0 mi SSW 6.9 mph - N/A   Clear
1:56 AM 36.9 °F 32.2 °F 28.0 °F 70% 30.16 in 8.0 mi SSW 5.8 mph - N/A   Partly Cloudy
2:56 AM 36.9 °F 30.7 °F 27.1 °F 68% 30.16 in 8.0 mi SSW 8.1 mph - N/A   Clear
3:56 AM 36.9 °F 30.7 °F 27.1 °F 68% 30.14 in 8.0 mi SW 8.1 mph - N/A   Clear
4:56 AM 34.9 °F 29.0 °F 27.1 °F 73% 30.14 in 8.0 mi SSW 6.9 mph - N/A   Clear
5:56 AM 34.9 °F 28.3 °F 27.1 °F 73% 30.14 in 8.0 mi SSW 8.1 mph - N/A   Scattered Clouds
6:56 AM 37.9 °F 31.5 °F 28.0 °F 68% 30.13 in 8.0 mi SSW 9.2 mph - N/A   Overcast
7:56 AM 37.9 °F 32.7 °F 28.0 °F 68% 30.14 in 6.0 mi SSW 6.9 mph - N/A   Haze
8:56 AM 38.8 °F 33.8 °F 28.0 °F 65% 30.13 in 6.0 mi SSW 6.9 mph - N/A   Haze
9:56 AM 39.9 °F 34.5 °F 29.1 °F 65% 30.13 in 6.0 mi SW 8.1 mph - N/A   Haze
10:56 AM 41.9 °F 37.5 °F 31.1 °F 66% 30.12 in 6.0 mi SSW 6.9 mph - N/A   Haze
11:56 AM 45.0 °F 38.5 °F 31.1 °F 58% 30.09 in 7.0 mi WSW 13.8 mph - N/A   Overcast
12:56 PM 47.8 °F - 32.9 °F 56% 30.06 in 7.0 mi WSW 11.5 mph - N/A   Clear
1:56 PM 50.0 °F - 34.0 °F 54% 30.04 in 7.0 mi WSW 11.5 mph - N/A   Clear
2:56 PM 50.0 °F - 34.9 °F 56% 30.02 in 6.0 mi WSW 9.2 mph - N/A   Haze
3:56 PM 48.9 °F - 34.9 °F 58% 30.02 in 6.0 mi WSW 6.9 mph - N/A   Haze
4:56 PM 45.0 °F 43.5 °F 34.0 °F 65% 30.02 in 6.0 mi SW 3.5 mph - N/A   Haze
5:56 PM 41.0 °F 38.0 °F 32.9 °F 73% 30.02 in 8.0 mi SSW 4.6 mph - N/A   Clear
6:56 PM 37.9 °F 34.4 °F 32.0 °F 79% 30.02 in 7.0 mi SSW 4.6 mph - N/A   Clear
7:56 PM 34.0 °F - 30.0 °F 85% 30.03 in 7.0 mi Calm Calm - N/A   Partly Cloudy
8:56 PM 34.9 °F 30.8 °F 32.0 °F 89% 30.02 in 7.0 mi NNW 4.6 mph - N/A   Mostly Cloudy
9:56 PM 32.9 °F 29.8 °F 30.0 °F 89% 30.01 in 7.0 mi Variable 3.5 mph - N/A   Clear
10:56 PM 34.0 °F - 31.1 °F 89% 30.00 in 7.0 mi Calm Calm - N/A   Mostly Cloudy
11:56 PM 34.0 °F 31.0 °F 32.0 °F 92% 29.99 in 7.0 mi NE 3.5 mph - N/A   Overcast